Flag Weather past 2 weeks in Catania, Italy

Now
63 °F

Passing clouds.


Feels Like: 63 °F
Forecast: 59 / 66 °F
Wind: 10 mph from Northeast

Location: Catania / Fontanarossa

Current Time: Nov 28, 2014 at 5:49:29 AM

Latest Report: Nov 28, 2014 at 4:50 AM


Visibility: N/A

Pressure: 29.95 "Hg

Humidity: 88%

Dew point: 59 °F

Location of CataniaLocation

Historic Weather in Catania — Graph

°F

Catania temperature yesterday

Maximum temperature yesterday: 70 °F (at 1:20 PM)
Minimum temperature yesterday: 50 °F (at 6:50 AM)
Average temperature yesterday: 60 °F

Past Weeks' High & Low Weather Summary

 TemperatureHumidityPressure
High72 °F (Nov 16, 11:50 AM)94% (Nov 14, 11:50 PM)30.30 "Hg (Nov 14, 11:50 PM)
Low45 °F (Nov 20, 2:50 AM)38% (Nov 19, 12:50 PM)29.80 "Hg (Nov 13, 11:50 AM)
Average59 °F81%30.05 "Hg
* Reported Nov 13 5:20 AM — Nov 28 4:50 AM, Catania, Weather by CustomWeather, © 2014

Note: Actual official high and low records may vary slightly from our data, if they occured in-between our weather recording intervals... More about our weather records

Advertising

Catania weather history for previous 24 hours

 ConditionsComfort  
Time TempWeatherWind HumidityBarometerVisibility
4:50 AM
Nov 28
63 °FPassing clouds.10 mph88%29.95 "HgN/A
4:20 AM63 °FPassing clouds.10 mph83%29.95 "HgN/A
3:50 AM63 °FPassing clouds.9 mph88%29.95 "HgN/A
3:20 AM63 °FPassing clouds.10 mph88%29.95 "HgN/A
2:50 AM63 °FPassing clouds.9 mph83%29.95 "HgN/A
2:20 AM63 °FPassing clouds.9 mph83%29.98 "HgN/A
1:50 AM63 °FPassing clouds.10 mph83%29.98 "HgN/A
1:20 AM61 °FPassing clouds.9 mph88%29.98 "HgN/A
12:50 AM61 °FPassing clouds.8 mph88%29.98 "HgN/A
12:20 AM61 °FPassing clouds.6 mph83%29.98 "HgN/A
11:50 PM
Nov 27
61 °FPassing clouds.7 mph83%29.98 "HgN/A
11:20 PM61 °FPassing clouds.7 mph83%29.98 "HgN/A
10:50 PM61 °FPassing clouds.7 mph83%29.98 "HgN/A
10:20 PM61 °FPassing clouds.6 mph83%29.98 "HgN/A
9:50 PM61 °FPassing clouds.7 mph88%29.98 "HgN/A
9:20 PM61 °FPassing clouds.7 mph88%29.98 "HgN/A
8:50 PM61 °FPassing clouds.6 mph83%29.98 "HgN/A
8:20 PM61 °FPassing clouds.6 mph88%29.98 "HgN/A
7:50 PM63 °FPassing clouds.8 mph83%29.95 "HgN/A
7:20 PM63 °FPassing clouds.8 mph83%29.95 "HgN/A
6:50 PM61 °FPassing clouds.7 mph94%29.98 "HgN/A
6:20 PM61 °FPassing clouds.6 mph88%29.95 "HgN/A
5:50 PM63 °FPassing clouds.6 mph88%29.95 "HgN/A
5:20 PM63 °FClear.6 mph83%29.95 "Hg10 mi
4:50 PM64 °FPassing clouds.3 mph78%29.95 "HgN/A
4:20 PM64 °FSunny.2 mph73%29.95 "Hg10 mi
3:50 PM64 °FSunny.6 mph73%29.95 "Hg10 mi
3:20 PM66 °FSunny.8 mph73%29.92 "Hg10 mi
2:50 PM66 °FSunny.8 mph68%29.92 "Hg10 mi
2:20 PM68 °FPassing clouds.6 mph64%29.92 "HgN/A
1:50 PM70 °FPassing clouds.5 mph50%29.92 "HgN/A
1:20 PM70 °FPassing clouds.5 mph50%29.95 "HgN/A
12:50 PM68 °FPassing clouds.6 mph56%29.95 "HgN/A
12:20 PM68 °FPassing clouds.6 mph60%29.95 "HgN/A
11:50 AM68 °FSunny.7 mph60%29.98 "Hg10 mi
11:20 AM66 °FPassing clouds.8 mph64%29.98 "HgN/A
10:50 AM64 °FSunny.9 mph68%29.98 "Hg10 mi
10:20 AM64 °FSunny.7 mph64%30.01 "Hg10 mi
9:50 AM63 °FSunny.8 mph73%30.01 "Hg10 mi
9:20 AM63 °FSunny.7 mph73%30.01 "Hg10 mi
8:50 AM61 °FSunny.3 mph72%30.01 "Hg10 mi
8:20 AM57 °FSunny.7 mph82%30.01 "Hg10 mi
7:50 AM54 °FSunny.6 mph88%30.01 "Hg10 mi
7:20 AM50 °FPassing clouds.7 mph94%29.98 "HgN/A
6:50 AM50 °FPassing clouds.7 mph88%29.98 "HgN/A
6:20 AM54 °FPassing clouds.6 mph88%29.98 "HgN/A
5:50 AM54 °FPassing clouds.7 mph88%29.98 "HgN/A
5:20 AM52 °FPassing clouds.6 mph94%29.98 "HgN/A
Weather by CustomWeather, © 2014

See weather overviewHow to use our weather pages